Weather History for Phoenix, AZ

Change the Weather History Date:

Wednesday, June 19, 2013

  Actual Average Record
Temperature  
Mean Temperature 92 °F 92 °F  
Max Temperature 106 °F 105 °F 115 °F (1968)
Min Temperature 77 °F 79 °F 61 °F (1965)
Degree Days  
Heating Degree Days 0 0  
Month to date heating degree days 0 0  
Since 1 June heating degree days 0 0  
Since 1 July heating degree days 881 935  
Cooling Degree Days 27 27  
Month to date cooling degree days 567 464  
Year to date cooling degree days 1665 1350  
Since 1 June cooling degree days 567 464  
Growing Degree Days 42 (Base 50)    
Moisture  
Dew Point 25 °F    
Average Humidity 13    
Maximum Humidity 21    
Minimum Humidity 5    
Precipitation  
Precipitation 0.00 in 0.00 in 0.19 in (1967)
Month to date precipitation 0.00 0.01  
Year to date precipitation 2.61 3.22  
Snow  
Snow 0.00 in - - ()
Month to date snowfall 0.0  
Year to date snowfall 0.0  
Since 1 July snowfall 0.0  
Snow Depth 0.00 in    
Sea Level Pressure  
Sea Level Pressure 29.63 in    
Wind  
Wind Speed 7 mph (SE)    
Max Wind Speed 17 mph    
Max Gust Speed 25 mph    
Visibility 10 miles    
Events      
T = Trace of Precipitation, MM = Missing Value Source: NWS Daily Summary

Daily Weather History Graph

Daily Weather History Graph

Search for Another Location

Airport:

Trip Planner

Search our weather history database for the weather conditions in past years. The results will help you decide how hot, cold, wet, or windy it might be!

Date:

Astronomy

Jun. 19, 2013 Rise Set
Actual Time 5:18 AM MST 7:40 PM MST
Civil Twilight 4:49 AM MST 8:09 PM MST
Nautical Twilight 4:13 AM MST 8:45 PM MST
Astronomical Twilight 3:35 AM MST 9:23 PM MST
Moon 3:45 PM MST (6/19) 1:56 AM MST (6/19)
Length of Visible Light 15h 20m
Length of Day
14h 22m
Waxing Gibbous, 81% of the Moon is Illuminated
Jun 19
Waxing Gibbous
Jun 23
Full
Jun 29
Last Quarter
Jul 8
New
Jul 15
First Quarter

Hourly Weather History & Observations

Time (MST) Temp. Dew Point Humidity Pressure Visibility Wind Dir Wind Speed Gust Speed Precip Events Conditions
12:51 AM 88.0 °F 23.0 °F 9% 29.61 in 10.0 mi WSW 5.8 mph - N/A   Clear
1:51 AM 84.9 °F 30.0 °F 14% 29.61 in 10.0 mi ESE 4.6 mph - N/A   Clear
2:51 AM 82.9 °F 34.0 °F 17% 29.61 in 10.0 mi East 6.9 mph - N/A   Clear
3:51 AM 81.0 °F 37.0 °F 21% 29.63 in 10.0 mi East 9.2 mph - N/A   Clear
4:51 AM 79.0 °F 33.1 °F 19% 29.64 in 10.0 mi East 6.9 mph - N/A   Clear
5:51 AM 77.0 °F 30.9 °F 19% 29.65 in 10.0 mi East 9.2 mph - N/A   Clear
6:51 AM 81.0 °F 26.1 °F 13% 29.67 in 10.0 mi East 9.2 mph - N/A   Clear
7:51 AM 84.9 °F 26.1 °F 12% 29.69 in 10.0 mi East 10.4 mph - N/A   Clear
8:51 AM 90.0 °F 27.0 °F 10% 29.70 in 10.0 mi ESE 8.1 mph - N/A   Clear
9:51 AM 95.0 °F 26.1 °F 9% 29.69 in 10.0 mi ESE 9.2 mph - N/A   Clear
10:51 AM 98.1 °F 26.1 °F 8% 29.69 in 10.0 mi SE 8.1 mph - N/A   Partly Cloudy
11:51 AM 99.0 °F 19.9 °F 6% 29.67 in 10.0 mi Calm Calm - N/A   Partly Cloudy
12:51 PM 102.0 °F 21.0 °F 6% 29.65 in 10.0 mi ESE 5.8 mph - N/A   Partly Cloudy
1:51 PM 102.9 °F 19.9 °F 5% 29.63 in 10.0 mi Variable 5.8 mph - N/A   Partly Cloudy
2:51 PM 105.1 °F 21.0 °F 5% 29.61 in 10.0 mi Calm Calm - N/A   Partly Cloudy
3:51 PM 106.0 °F 21.9 °F 5% 29.58 in 10.0 mi WSW 11.5 mph - N/A   Partly Cloudy
4:51 PM 105.1 °F 19.0 °F 5% 29.57 in 10.0 mi West 9.2 mph - N/A   Partly Cloudy
5:51 PM 104.0 °F 19.0 °F 5% 29.56 in 10.0 mi WNW 9.2 mph - N/A   Partly Cloudy
6:51 PM 104.0 °F 19.0 °F 5% 29.57 in 10.0 mi West 15.0 mph - N/A   Partly Cloudy
7:51 PM 100.9 °F 21.9 °F 6% 29.57 in 10.0 mi West 12.7 mph - N/A   Partly Cloudy
8:51 PM 96.1 °F 26.1 °F 8% 29.58 in 10.0 mi SW 8.1 mph - N/A   Clear
9:51 PM 93.0 °F 28.0 °F 10% 29.60 in 10.0 mi SW 4.6 mph - N/A   Clear
10:51 PM 93.0 °F 26.1 °F 9% 29.61 in 10.0 mi Variable 3.5 mph - N/A   Clear
11:51 PM 93.0 °F 23.0 °F 8% 29.62 in 10.0 mi Variable 3.5 mph - N/A   Clear